CYBD

Bella Coola  Airport

Bella Coola, British Columbia, Canada
Issued Wind Visibility Ceiling Temperature Dew Point Humidity Barometer
Nov-24
01:00 UTC
260°
11 KTS
Gust 17 KTS
4 miles Broken
5,500' AGL
C
45° F
C
41° F
87% 29.54" Hg
1000.6 hPa
MVFR
Nov-24
00:00 UTC
260°
10 KTS
Gust 18 KTS
8 miles Broken
5,400' AGL
C
46° F
C
43° F
87% 29.53" Hg
1000.3 hPa
VFR
Nov-23
23:00 UTC
260°
13 KTS
Gust 22 KTS
8 miles Broken
8,700' AGL
C
46° F
C
43° F
87% 29.53" Hg
1000.1 hPa
VFR
Nov-23
22:00 UTC
270°
12 KTS
Gust 20 KTS
8 miles Broken
7,500' AGL
C
46° F
C
43° F
87% 29.53" Hg
1000.1 hPa
VFR
Nov-23
21:00 UTC
250°
17 KTS
Gust 24 KTS
12 miles Broken
8,000' AGL
C
48° F
C
43° F
82% 29.53" Hg
1000.2 hPa
VFR
Nov-23
20:00 UTC
290°
10 KTS
Gust 17 KTS
8 miles Broken
8,400' AGL
C
46° F
C
43° F
87% 29.53" Hg
1000.3 hPa
VFR
Nov-23
19:00 UTC
280°
8 KTS
Gust 15 KTS
6 miles Broken
7,000' AGL
C
46° F
C
43° F
87% 29.54" Hg
1000.6 hPa
VFR
Nov-23
18:00 UTC
280°
10 KTS
Gust 15 KTS
8 miles Broken
7,100' AGL
C
45° F
C
43° F
93% 29.54" Hg
1000.7 hPa
VFR
Nov-23
17:00 UTC
320°
7 KTS
Gust 15 KTS
8 miles Broken
7,500' AGL
C
45° F
C
43° F
93% 29.54" Hg
1000.6 hPa
VFR
Nov-23
16:00 UTC
290°
6 KTS
8 miles Broken
5,800' AGL
C
45° F
C
43° F
93% 29.54" Hg
1000.4 hPa
VFR
Nov-23
15:00 UTC
310°
10 KTS
Gust 16 KTS
3 miles Broken
6,200' AGL
C
45° F
C
43° F
93% 29.53" Hg
1000.1 hPa
MVFR